sat.trackr.live / text

‹ back to catalog

AURA

NORAD 28376 · 2004-026A

PAYLOAD ACTIVE UNKNOWN

§ Identity

Operator
Country
US
Launch date
2004-07-15
Launch site
AFWTR
Launch vehicle
Mass (kg)
RCS (m²)
9.44

Purposes: earth_obs

External: N2YO · Heavens-Above · Gunter

§ Orbital elements

Epoch: 2026-05-25T02:47:34.145952Z

Period
98.54 min
Inclination
98.3406°
Eccentricity
0.0001545
Mean motion
14.61287322 rev/d
Perigee alt
687.9 km
Apogee alt
690.1 km
Semi-major
7,067.2 km
B*
1.3820e-4
RAAN
101.3814°
Arg perigee
71.6185°
Mean anomaly
288.5184°
Rev number
16,284

§ Raw data

AURA1 28376U 04026A   26145.11636743  .00000634  00000+0  13820-3 0  99962 28376  98.3406 101.3814 0001545  71.6185 288.5184 14.61287322162842

JSON: /api/v1/satellites/28376 · /tle

For live sub-satellite position, see the globe view (requires WebGL).

§ Visibility from observer

Set your observer location to see the next 7 days of passes ≥ 10°. The values pass through the URL so the page stays shareable.

No JS? Fill the form by hand. The geolocation button needs JavaScript.

§ Radio — SatNOGS DB

ModeDescriptionDownlinkUplink
BPSK S-band telemetry 2.288 GHz
X Band downlink 8.160 GHz

2 transmitters · refreshed weekly from db.satnogs.org